Tehachapi, CA

8:13 AM PST on February 20, 2017 (GMT -0800)
Tehachapi Municipal

Weather History for KTSP - October, 2014

Change the Weather History Date:

Wednesday, October 1, 2014

  Actual Average Record
Temperature  
Mean Temperature 58 °F -  
Max Temperature 77 °F 77 °F 89 °F (2012)
Min Temperature 39 °F 47 °F 39 °F (2014)
Degree Days  
Heating Degree Days 7    
Growing Degree Days 8 (Base 50)    
Moisture  
Dew Point 43 °F    
Average Humidity 58    
Maximum Humidity 93    
Minimum Humidity 19    
Precipitation  
Precipitation 0.00 in - - ()
Sea Level Pressure  
Sea Level Pressure 30.00 in    
Wind  
Wind Speed 7 mph (NW)    
Max Wind Speed 17 mph    
Max Gust Speed 26 mph    
Visibility 10 miles    
Events      
Averages and records for this station are not official NWS values.
T = Trace of Precipitation, MM = Missing Value Source: NWS Daily Summary

Daily Weather History Graph

Daily Weather History Graph

Search for Another Location

Airport or City:

Trip Planner

Search our weather history database for the weather conditions in past years. The results will help you decide how hot, cold, wet, or windy it might be!

Date:

Astronomy

Oct. 01, 2014 Rise Set
Actual Time 6:48 AM PDT 6:37 PM PDT
Civil Twilight 6:23 AM PDT 7:02 PM PDT
Nautical Twilight 5:53 AM PDT 7:32 PM PDT
Astronomical Twilight 5:24 AM PDT 8:01 PM PDT
Moon 1:44 PM PDT (10/1) No Moon Set
Length of Visible Light 12h 39m
Length of Day
11h 48m
Waxing Crescent, 50% of the Moon is Illuminated
Oct 1
Waxing Crescent
Oct 1
First Quarter
Oct 8
Full
Oct 15
Last Quarter
Oct 23
New

Hourly Weather History & Observations

Time (PDT) Temp. Windchill Dew Point Humidity Pressure Visibility Wind Dir Wind Speed Gust Speed Precip Events Conditions
12:35 AM 53.6 °F - 44.6 °F 72% 29.94 in 10.0 mi West 9.2 mph - N/A   Clear
12:55 AM 44.6 °F - 41.0 °F 87% 30.08 in 10.0 mi Calm Calm - N/A   Clear
1:15 AM 55.4 °F - 46.4 °F 72% 29.94 in 10.0 mi West 10.4 mph - N/A   Clear
1:35 AM 55.4 °F - 46.4 °F 72% 29.94 in 10.0 mi West 10.4 mph - N/A   Clear
1:55 AM 55.4 °F - 46.4 °F 72% 29.94 in 10.0 mi WNW 11.5 mph - N/A   Clear
2:15 AM 55.4 °F - 46.4 °F 72% 29.93 in 10.0 mi West 17.3 mph - N/A   Clear
2:35 AM 55.4 °F - 46.4 °F 72% 29.93 in 10.0 mi West 10.4 mph - N/A   Clear
2:55 AM 55.4 °F - 46.4 °F 72% 29.93 in 10.0 mi West 12.7 mph - N/A   Clear
3:15 AM 53.6 °F - 46.4 °F 77% 29.93 in 10.0 mi West 10.4 mph - N/A   Clear
3:35 AM 53.6 °F - 46.4 °F 77% 29.93 in 9.0 mi WNW 6.9 mph - N/A   Clear
3:55 AM 53.6 °F - 46.4 °F 77% 29.93 in 10.0 mi West 4.6 mph - N/A   Clear
4:15 AM 51.8 °F - 46.4 °F 82% 29.94 in 10.0 mi Calm Calm - N/A   Clear
4:35 AM 50.0 °F - 46.4 °F 87% 29.94 in 10.0 mi WNW 6.9 mph - N/A   Clear
4:55 AM 50.0 °F - 46.4 °F 87% 29.95 in 10.0 mi North 3.5 mph - N/A   Partly Cloudy
5:35 AM 41.0 °F 39.0 °F 39.2 °F 93% 30.03 in 10.0 mi NNW 3.5 mph - N/A   Clear
5:55 AM 50.0 °F - 44.6 °F 82% 29.96 in 9.0 mi West 4.6 mph - N/A   Clear
6:35 AM 39.2 °F 35.0 °F 37.4 °F 93% 30.03 in 9.0 mi SE 5.8 mph - N/A   Clear
6:55 AM 48.2 °F - 44.6 °F 87% 29.97 in 7.0 mi Calm Calm - N/A   Clear
7:15 AM 39.2 °F - 37.4 °F 93% 30.04 in 5.0 mi Calm Calm - N/A   Clear
7:35 AM 50.0 °F - 46.4 °F 87% 29.98 in 6.0 mi Calm Calm - N/A   Clear
7:55 AM 51.8 °F - 46.4 °F 82% 29.99 in 7.0 mi Calm Calm - N/A   Clear
8:15 AM 53.6 °F - 46.4 °F 77% 29.99 in 8.0 mi Calm Calm - N/A   Clear
8:35 AM 57.2 °F - 48.2 °F 72% 30.00 in 8.0 mi Calm Calm - N/A   Clear
8:55 AM 59.0 °F - 48.2 °F 67% 30.00 in 10.0 mi Calm Calm - N/A   Clear
9:15 AM 62.6 °F - 46.4 °F 55% 30.00 in 10.0 mi NW 6.9 mph - N/A   Clear
9:35 AM 64.4 °F - 46.4 °F 52% 30.01 in 9.0 mi NNW 8.1 mph - N/A   Clear
9:55 AM 64.4 °F - 46.4 °F 52% 30.01 in 8.0 mi NW 5.8 mph - N/A   Clear
10:15 AM 66.2 °F - 46.4 °F 49% 30.01 in 10.0 mi NW 4.6 mph - N/A   Clear
10:35 AM 66.2 °F - 46.4 °F 49% 30.01 in 9.0 mi North 3.5 mph - N/A   Clear
10:55 AM 68.0 °F - 44.6 °F 43% 30.01 in 9.0 mi NW 5.8 mph - N/A   Clear
11:15 AM 69.8 °F - 44.6 °F 40% 30.01 in 10.0 mi NW 5.8 mph - N/A   Clear
11:35 AM 71.6 °F - 44.6 °F 38% 30.00 in 10.0 mi North 6.9 mph - N/A   Clear
11:55 AM 73.4 °F - 44.6 °F 36% 30.00 in 10.0 mi NW 10.4 mph - N/A   Clear
12:15 PM 73.4 °F - 41.0 °F 31% 29.99 in 10.0 mi ENE 6.9 mph - N/A   Clear
12:35 PM 75.2 °F - 35.6 °F 24% 29.99 in 10.0 mi East 8.1 mph - N/A   Clear
12:55 PM 75.2 °F - 35.6 °F 24% 29.98 in 10.0 mi ESE 15.0 mph 23.0 mph N/A   Clear
1:15 PM 75.2 °F - 35.6 °F 24% 29.98 in 10.0 mi ESE 10.4 mph 23.0 mph N/A   Clear
1:35 PM 77.0 °F - 32.0 °F 19% 29.98 in 10.0 mi ESE 10.4 mph 20.7 mph N/A   Clear
1:55 PM 77.0 °F - 32.0 °F 19% 29.97 in 10.0 mi ENE 11.5 mph 17.3 mph N/A   Clear
2:15 PM 77.0 °F - 35.6 °F 22% 29.98 in 10.0 mi SE 11.5 mph 23.0 mph N/A   Clear
2:35 PM 77.0 °F - 33.8 °F 21% 29.98 in 10.0 mi ESE 11.5 mph 20.7 mph N/A   Clear
2:55 PM 77.0 °F - 35.6 °F 22% 29.98 in 10.0 mi SE 16.1 mph 23.0 mph N/A   Clear
3:15 PM 77.0 °F - 33.8 °F 21% 29.98 in 10.0 mi East 12.7 mph 26.5 mph N/A   Clear
3:35 PM 77.0 °F - 32.0 °F 19% 29.98 in 10.0 mi ESE 11.5 mph 16.1 mph N/A   Clear
3:55 PM 77.0 °F - 32.0 °F 19% 29.98 in 10.0 mi ENE 9.2 mph 21.9 mph N/A   Clear
4:15 PM 69.8 °F - 44.6 °F 40% 29.94 in 10.0 mi NW 16.1 mph 21.9 mph N/A   Clear
4:35 PM 71.6 °F - 46.4 °F 41% 29.99 in 10.0 mi NNW 11.5 mph 17.3 mph N/A   Clear
4:55 PM 68.0 °F - 41.0 °F 37% 29.94 in 10.0 mi NW 16.1 mph 23.0 mph N/A   Clear
5:15 PM 69.8 °F - 46.4 °F 43% 30.00 in 10.0 mi NW 13.8 mph 17.3 mph N/A   Clear
5:35 PM 68.0 °F - 46.4 °F 46% 30.01 in 10.0 mi NW 13.8 mph - N/A   Clear
5:55 PM 66.2 °F - 46.4 °F 49% 30.02 in 10.0 mi NW 9.2 mph - N/A   Clear
6:15 PM 66.2 °F - 48.2 °F 52% 30.02 in 10.0 mi NW 9.2 mph - N/A   Clear
6:35 PM 64.4 °F - 48.2 °F 56% 30.03 in 10.0 mi NW 5.8 mph - N/A   Clear
6:55 PM 62.6 °F - 48.2 °F 59% 30.03 in 10.0 mi WNW 5.8 mph - N/A   Clear
7:15 PM 60.8 °F - 46.4 °F 59% 30.04 in 10.0 mi WNW 3.5 mph - N/A   Clear
7:35 PM 59.0 °F - 46.4 °F 63% 30.05 in 10.0 mi WNW 3.5 mph - N/A   Clear
7:55 PM 59.0 °F - 46.4 °F 63% 30.06 in 10.0 mi West 3.5 mph - N/A   Clear
8:15 PM 59.0 °F - 46.4 °F 63% 30.07 in 10.0 mi Calm Calm - N/A   Clear
8:35 PM 57.2 °F - 46.4 °F 67% 30.08 in 10.0 mi Calm Calm - N/A   Clear
8:55 PM 57.2 °F - 46.4 °F 67% 30.08 in 10.0 mi ESE 3.5 mph - N/A   Clear
9:15 PM 53.6 °F - 44.6 °F 72% 30.08 in 10.0 mi SE 6.9 mph - N/A   Clear
9:35 PM 53.6 °F - 42.8 °F 67% 30.09 in 10.0 mi SE 6.9 mph - N/A   Clear
9:55 PM 51.8 °F - 41.0 °F 67% 30.10 in 10.0 mi SE 6.9 mph - N/A   Clear
10:15 PM 50.0 °F - 39.2 °F 66% 30.10 in 10.0 mi Calm Calm - N/A   Clear
10:35 PM 50.0 °F - 39.2 °F 66% 30.10 in 10.0 mi SE 3.5 mph - N/A   Clear
10:55 PM 50.0 °F - 41.0 °F 71% 30.10 in 10.0 mi SE 10.4 mph - N/A   Clear
11:15 PM 50.0 °F - 39.2 °F 66% 30.10 in 10.0 mi SE 10.4 mph - N/A   Clear
11:35 PM 48.2 °F - 39.2 °F 71% 30.10 in 10.0 mi SE 9.2 mph - N/A   Clear
11:55 PM 50.0 °F - 39.2 °F 66% 30.10 in 10.0 mi SE 11.5 mph - N/A   Clear